Other Surface Observations
Issued by NWS

Home | Current Version | Previous Version | Text Only | Print | Product List | Glossary On
Versions: 1 2 3 4 5 6 7 8 9 10 11 12 13 14 15 16 17 18 19 20 21 22 23 24 25 26 27 28 29 30 31 32 33 34 35 36 37 38 39 40 41 42 43 44 45 46 47 48 49 50
000
SXUS52 KTAE 270905
OSOTAE
OSOTAE
North Florida/South Alabama/Southwest Georgia Weather Roundup
National Weather Service Tallahassee Florida
500 AM EDT WED AUG 27 2014

Note: "fair" indicates few or no clouds below 12,000 feet with no
significant weather and/or obstructions to visibility.

!FLZ017-115-028-034-025-271000
...North Florida...

CITY           SKY/WX    TMP DP  RH WIND       PRES   REMARKS
TALLAHASSEE    CLEAR     73  68  84 CALM      29.99S
APALACHICOLA   CLEAR     75  71  87 NE3       29.97R
PERRY          CLEAR     70  70 100 CALM      29.99S
CROSS CITY       N/A     70  67  90 CALM      29.97R
HOMERVILLE     FAIR      68  66  94 CALM      30.00S
JACKSONVILLE   CLEAR     67  67 100 CALM      29.96S
$$

!FLZ112-006-005-002-011-271000
...Florida Panhandle...

CITY           SKY/WX    TMP DP  RH WIND       PRES   REMARKS
MARIANNA       CLEAR     72  71  97 CALM      29.99S
BONIFAY        LGT RAIN  70  68  93 CALM      30.00S
PANAMA CITY NW FAIR      73  69  87 CALM      29.97S
TYNDALL AFB    CLEAR     75  71  87 E2        29.98S
TYND DRONE APT FAIR      75  72  89 NE5       29.96S
DE FUNIAK SPR  FAIR      71  69  93 N3        30.00S
EGLIN AFB      PTCLDY    73  70  90 N3        29.97F
DESTIN         CLEAR     77  75  93 CALM      29.97S
HURLBURT       CLEAR     73  67  83 N6        29.96S
CRESTVIEW      CLEAR     70  67  90 N3        30.00S
PENSACOLA      CLEAR     74  70  87 NE7       29.97F
$$

!ALZ063-066-271000
...South Alabama...

CITY           SKY/WX    TMP DP  RH WIND       PRES   REMARKS
DOTHAN         CLEAR     69  64  84 NE5       30.04S
OZARK CAIRNS   CLEAR     70  65  82 NE6       30.01R
FT RUCKER HELI CLEAR     67  64  90 CALM      30.00S
RUCKER HELI 3  FAIR      69  65  88 N2        30.03S
RUCKER HELI 2  FAIR      71  64  78 N3        30.01S
FLORALA APT    CLEAR     73  65  75 CALM      30.02S
ANDALUSIA      CLEAR     74  65  73 CALM      30.01S
TROY           CLEAR     66  63  90 CALM      30.03S
EUFALA         FAIR      64  62  93 CALM      30.01S
MOBILE         PTCLDY    75  70  84 NE6       30.00S
$$

!GAZ120>161-271000
...Southwest and South Central Georgia...

CITY           SKY/WX    TMP DP  RH WIND       PRES   REMARKS
THOMASVILLE    FAIR      70  70 100 CALM      30.01F
BAINBRIDGE     CLEAR     73  72  94 CALM      30.00S
MOODY AFB      CLEAR     68  66  92 N5        30.00R
VALDOSTA       CLEAR     67  65  93 CALM      30.00R
MOULTRIE       CLEAR     70  70 100 CALM      30.02S
BLAKELY        CLEAR     68  66  94 CALM        N/A
ALBANY         CLEAR     68  66  93 CALM      30.02F
TIFTON         FAIR      67  65  93 CALM      30.01S
FITZGERALD     FAIR      68  65  91 CALM      30.04S
CORDELE        FAIR      69  64  86 CALM      30.03S
AMERICUS       FAIR      64  61  88 NE3       30.04F
$$

!GMZ750-755-770-775-271000
...Coastal and Buoy Obs...

STATION/POSITION TIME  TEMP    WIND        PRES    VSBY  WAVE
                       AIR SEA DIR/SP/G                  HT/PER
                 (UTC) (F)     (DEG/KT/KT) (MB)    (MI)  (FT/S)
KEATON BEACH     0900   71      10/  3/  4 1015.2S
CEDAR KEY        0800   76      60/ 11/ 12 1014.9F
C TOWER          0900   82     100/ 17/ 18 1014.4S
APALACHICOLA BUO 0900   83 86   80/ 17/ 21 1013.5S         6/ 6
PANAMA CITY BUOY NOT AVBL
MOBILE BUOY      0803   85 86   90/ 16/ 17 1014.2S
ORANGE BCH AL BU 0900   83 85   60/  4/  6 1014.7F         2/ 5
$$



USA.gov is the U.S. government's official web portal to all federal, state and local government web resources and services.